CAPE
730 516 506 643 737 868 693 594 765 823 652 1491 1835 1884 1940 2138 2147 1617 1488 1831 1821 1896 1984 1710 2178 1944 1409 1249 1166 979 755 1009 802 705 687 980 1475 1587 1228 1457 1422 1306 1160
778 777 689 761 670 475 515 558 861 811 1211 1939 1974 2234 2360 2007 2353 2811 2594 1964 2102 1856 2499 2238 2061 2040 2000 1747 1179 1049 822 864 867 699 647 981 1040 1248 1541 1612 1412 1136 1276
932 881 857 704 703 698 729 1114 638 738 1353 1716 2582 2899 3099 3166 2957 3140 3026 2793 2415 2252 2295 2507 1959 1777 1858 1592 1127 1164 1037 977 1008 996 807 382 602 955 1361 1527 1451 1334 1224
1188 1165 1152 1169 1088 1137 936 919 1074 1403 1894 2785 3209 3383 3274 3120 3046 2910 2739 2600 2234 1932 2071 2136 1833 1824 1856 1425 988 1071 1072 485 454 632 507 518 184 878 1061 1022 972 1172 990
1459 1568 1856 1900 1809 1812 1706 1794 2069 2903 3212 3455 3156 2947 2845 3039 2512 2654 3214 2945 2325 2056 1604 1652 1744 1558 605 481 384 610 378 321 346 252 469 752 108 295 691 749 809 660 704
1882 1865 2036 2163 2043 2183 2662 3098 3161 2939 2934 3035 2824 2571 2182 1406 316 1012 1720 3006 2824 2665 2353 2044 1340 194 30 1 0 0 3 300 710 621 273 153 46 188 765 763 645 691 712
2056 2413 2677 2879 2732 2648 2690 2545 2276 2180 2079 1960 1682 1365 396 1 1 697 1497 2517 2509 2197 1978 1827 1531 861 253 692 517 183 22 0 0 454 525 187 517 772 799 862 882 885 1052
2793 2798 2774 2541 2138 1790 1672 1469 1161 1118 1094 529 266 118 3 0 0 0 419 1314 1243 1002 1107 913 1129 969 113 473 792 934 1004 868 798 731 887 1015 1002 1081 1026 845 1055 1055 1015
2424 2263 2040 1563 1116 803 512 204 73 43 0 0 0 0 0 0 0 0 48 249 436 664 223 55 50 10 0 0 688 561 549 569 484 144 58 77 70 84 144 353 476 587 674
1452 894 362 60 10 0 0 0 0 0 0 0 0 0 0 0 0 0 0 0 0 67 171 1 0 0 0 0 0 5 191 153 18 1 115 123 95 382 186 418 482 301 266
17 0 0 0 0 1 0 0 0 0 0 0 0 0 0 0 0 0 0 0 0 0 0 0 0 0 0 0 0 0 0 0 0 0 0 2 41 56 48 62 70 89 99
0 0 0 0 0 0 0 0 0 0 0 0 0 0 0 0 0 0 0 0 0 0 1 0 0 0 0 0 0 0 0 2 8 3 2 15 22 13 10 11 11 13 18
0 0 0 0 0 0 0 0 0 0 0 0 0 0 0 0 0 0 0 0 0 0 0 0 0 0 0 0 0 0 0 0 0 0 0 4 6 10 2 5 0 5 6
6 4 1 0 0 0 0 0 0 0 0 0 0 0 0 0 0 0 0 0 0 0 1 0 0 0 0 0 0 0 0 0 0 0 0 0 0 0 0 0 0 0 0
3 0 0 0 0 0 0 0 0 0 0 0 0 0 0 0 0 0 0 0 0 0 0 0 0 0 0 0 0 0 0 0 0 0 0 0 0 0 0 0 0 0 0
0 0 0 0 0 0 0 0 0 0 0 0 0 0 0 0 0 0 0 0 0 0 0 0 0 0 0 0 0 0 0 0 0 0 0 0 0 0 0 0 0 0 0
0 0 0 0 0 0 0 0 0 0 0 0 0 0 0 0 0 0 0 0 0 0 0 0 0 0 0 0 0 0 0 0 0 0 0 0 0 0 0 0 0 0 0
0 0 0 0 0 0 0 0 0 0 0 0 0 0 0 0 0 0 0 0 0 0 0 0 0 0 0 0 0 0 0 0 0 0 0 0 0 0 0 0 0 0 0
0 0 0 0 0 0 0 0 0 0 0 0 0 0 0 0 0 0 0 0 0 0 0 0 0 0 0 0 1 2 3 3 0 0 0 0 0 0 0 0 0 0 0
0 0 0 0 0 0 0 0 0 0 0 0 0 0 0 0 0 0 0 0 0 0 0 0 0 0 1 3 5 6 9 11 8 1 0 0 0 0 0 0 0 0 0
0 0 0 0 0 0 0 0 0 0 0 0 0 0 0 0 0 0 0 0 0 0 0 0 0 1 1 2 3 4 7 11 13 1 0 0 0 0 0 0 0 0 0
0 0 0 0 0 0 0 0 0 0 0 0 0 0 0 0 0 0 0 0 0 0 0 0 0 0 0 0 1 3 8 10 5 1 0 0 0 0 0 0 0 0 0
0 0 0 0 0 0 0 0 0 0 0 0 0 0 0 0 0 0 0 0 0 0 0 0 0 0 0 0 1 6 9 1 1 0 0 0 0 0 0 0 0 0 1
0 0 0 0 0 0 0 0 0 0 0 0 0 0 0 0 0 0 0 0 0 0 0 0 0 0 0 0 0 4 2 0 0 0 0 0 0 0 0 0 0 2 6
0 0 0 0 0 0 0 0 0 0 0 0 0 0 0 0 0 0 0 0 0 0 0 0 0 0 0 0 0 0 0 0 0 0 0 0 0 0 0 0 3 6 9
0 0 0 0 0 0 0 0 0 0 0 0 0 0 0 0 0 0 0 0 0 0 0 0 0 0 0 0 0 0 0 0 0 0 0 0 0 0 0 1 3 7 9
CIN
-158 -155 -153 -128 -120 -118 -133 -139 -120 -101 -134 -58 -40 -34 -31 -28 -37 -77 -67 -19 -31 -23 -5 -2 -0 -0 -1 -1 -1 -3 -2 -1 -1 -5 -1 -1 -1 -3 -1 -14 -19 -17 -16
-127 -151 -152 -148 -175 -172 -182 -174 -144 -140 -105 -43 -43 -36 -22 -38 -16 -1 -8 -13 -22 -28 -0 -1 -1 -0 -0 -0 -1 -1 -5 -6 -6 -1 -10 -4 -5 -1 -0 -6 -5 -1 -0
-126 -138 -150 -152 -181 -171 -156 -126 -158 -151 -91 -57 -11 -7 -1 -0 -0 -0 -0 -1 -4 -5 -2 -0 -3 -9 -1 -1 -13 -1 -7 -3 -1 -0 -1 -23 -18 -1 -2 -6 -5 -4 -1
-117 -118 -115 -131 -130 -128 -133 -162 -137 -96 -64 -1 -0 -0 -0 -0 -0 -0 -0 -1 -9 -12 -5 -16 -6 -1 -0 -1 -1 -1 -1 -8 -5 -1 -1 -2 -22 -2 -2 -2 -26 -17 -3
-163 -141 -120 -116 -127 -129 -116 -100 -63 -9 -0 -0 -0 -5 -8 -0 -8 -23 -0 -0 -4 -3 -27 -37 -17 -22 -104 -65 -35 -3 -4 -9 -9 -15 -2 -0 -33 -23 -7 -1 -2 -3 -2
-180 -147 -136 -156 -159 -117 -54 -15 -8 -13 -4 -0 -0 -0 -9 -60 -321 -161 -76 -0 -0 -0 -0 -1 -26 -192 -244 -246 -3 -5 -7 -25 -0 -2 -8 -4 -16 -34 -9 -1 -2 -3 -2
-178 -146 -104 -81 -84 -71 -43 -33 -36 -26 -17 -15 -34 -54 -276 -386 -157 -183 -40 -0 -0 -0 -0 -0 -0 -21 -96 -25 -42 -103 -153 -0 -0 -16 -2 -29 -7 -2 -7 -6 -8 -6 -7
-111 -111 -95 -95 -102 -108 -89 -82 -112 -105 -90 -218 -320 -406 -43 -0 -0 -0 -206 -3 -5 -9 -9 -15 -0 -0 -205 -37 -1 -1 -0 -0 -1 -9 -0 -0 -0 -2 -0 -4 -1 -1 -3
-146 -146 -157 -182 -205 -217 -246 -351 -458 -517 -0 -0 -0 -0 -0 -0 -0 -0 -330 -191 -94 -21 -149 -316 -312 -48 -0 -0 -0 -0 -0 -0 -5 -25 -54 -63 -59 -68 -54 -10 -3 -0 -0
-264 -341 -416 -514 -563 -0 -0 -0 -0 -0 -0 -0 -0 -0 -0 -0 -0 -0 -0 -0 -0 -241 -151 -28 -0 -0 -0 -0 -0 -239 -35 -40 -99 -111 -8 -9 -22 -1 -17 -1 -0 -2 -0
-355 -0 -0 -0 -247 -254 -0 -0 -0 -0 -0 -0 -0 -0 -0 -0 -0 -0 -0 -0 -0 -0 -0 -0 -0 -0 -0 -0 -0 -0 -0 -0 -0 -0 -0 -0 -56 -48 -18 -31 -13 -18 -4
-0 -0 -0 -0 -0 -0 -0 -0 -0 -0 -0 -0 -0 -0 -0 -0 -0 -0 -0 -0 -0 -0 -1 -0 -0 -0 -0 -0 -0 -0 -0 -0 -1 -1 -0 -1 -1 -1 -1 -1 -1 -0 -1
-0 -0 -0 -0 -0 -0 -0 -0 -0 -0 -0 -0 -0 -0 -0 -0 -0 -0 -0 -0 -0 -0 -0 -0 -0 -0 -0 -0 -0 -0 -0 -0 -0 -0 -1 -1 -1 -0 -1 -1 -3 -1 -1
-741 -699 -252 -0 -0 -0 -0 -0 -0 -0 -0 -0 -0 -0 -0 -0 -0 -0 -0 -0 -0 -0 -0 -0 -0 -0 -0 -0 -0 -0 -0 -0 -0 -0 -0 -0 -0 -0 -0 -1 -0 -0 -0
-700 -0 -0 -0 -0 -0 -0 -0 -0 -0 -0 -0 -0 -0 -0 -0 -0 -0 -0 -0 -0 -0 -0 -0 -0 -0 -0 -0 -0 -0 -0 -0 -0 -0 -0 -0 -0 -0 -0 -0 -0 -0 -0
-0 -0 -0 -0 -0 -0 -0 -0 -0 -0 -0 -0 -0 -0 -0 -0 -0 -0 -0 -0 -0 -0 -0 -0 -0 -0 -0 -0 -0 -0 -0 -0 -0 -0 -0 -0 -0 -0 -0 -0 -0 -0 -0
-0 -0 -0 -0 -0 -0 -0 -0 -0 -0 -0 -0 -0 -0 -0 -0 -0 -0 -0 -0 -0 -0 -0 -0 -0 -0 -0 -0 -0 -0 -0 -0 -0 -0 -0 -0 -0 -0 -0 -0 -0 -0 -0
-0 -0 -0 -0 -0 -0 -0 -0 -0 -0 -0 -0 -0 -0 -0 -0 -0 -0 -0 -0 -0 -0 -0 -0 -0 -0 -0 -0 -0 -0 -0 -0 -0 -0 -0 -0 -0 -0 -0 -0 -0 -0 -0
-0 -0 -0 -0 -0 -0 -0 -0 -0 -0 -0 -0 -0 -0 -0 -0 -0 -0 -0 -0 -0 -0 -0 -0 -0 -0 -0 -0 -1 -2 -1 -2 -0 -0 -0 -0 -0 -0 -0 -0 -0 -0 -0
-0 -0 -0 -0 -0 -0 -0 -0 -0 -0 -0 -0 -0 -0 -0 -0 -0 -0 -0 -0 -0 -0 -0 -0 -0 -0 -2 -1 -2 -1 -1 -1 -2 -3 -0 -0 -0 -0 -0 -0 -0 -0 -0
-0 -0 -0 -0 -0 -0 -0 -0 -0 -0 -0 -0 -0 -0 -0 -0 -0 -0 -0 -0 -0 -0 -0 -0 -0 -1 -1 -2 -1 -2 -3 -2 -1 -2 -0 -0 -0 -0 -0 -0 -0 -0 -0
-0 -0 -0 -0 -0 -0 -0 -0 -0 -0 -0 -0 -0 -0 -0 -0 -0 -0 -0 -0 -0 -0 -0 -0 -0 -0 -0 -0 -1 -1 -3 -2 -2 -1 -0 -0 -0 -0 -0 -0 -0 -0 -0
-0 -0 -0 -0 -0 -0 -0 -0 -0 -0 -0 -0 -0 -0 -0 -0 -0 -0 -0 -0 -0 -0 -0 -0 -0 -0 -0 -0 -0 -1 -2 -2 -1 -0 -0 -0 -0 -0 -0 -0 -0 -0 -2
-0 -0 -0 -0 -0 -0 -0 -0 -0 -0 -0 -0 -0 -0 -0 -0 -0 -0 -0 -0 -0 -0 -0 -0 -0 -0 -0 -0 -0 -0 -2 -0 -0 -0 -0 -0 -0 -0 -0 -0 -0 -2 -3
-0 -0 -0 -0 -0 -0 -0 -0 -0 -0 -0 -0 -0 -0 -0 -0 -0 -0 -0 -0 -0 -0 -0 -0 -0 -0 -0 -0 -0 -0 -0 -0 -0 -0 -0 -0 -0 -0 -0 -0 -2 -2 -2
-0 -0 -0 -0 -0 -0 -0 -0 -0 -0 -0 -0 -0 -0 -0 -0 -0 -0 -0 -0 -0 -0 -0 -0 -0 -0 -0 -0 -0 -0 -0 -0 -0 -0 -0 -0 -0 -0 -1 -2 -2 -2 -2
Wind_Speed
23 22 21 20 21 20 19 18 8 5 4 4 5 5 4 5 3 3 4 4 6 7 6 5 5 6 5 3 6 6 4 6 2 7 1 15 21 22 19 12 5 1 4
23 22 22 23 23 17 13 10 5 5 4 4 4 4 4 6 7 7 7 3 3 1 2 2 1 1 2 2 7 11 13 14 15 11 15 14 24 25 24 21 17 9 3
20 20 20 17 12 12 11 7 5 4 5 3 3 4 4 6 7 8 10 10 10 5 2 4 5 8 5 4 5 1 1 4 15 21 21 14 17 32 23 25 22 22 22
17 15 13 10 7 7 5 5 4 4 4 4 4 5 5 6 7 9 9 8 7 2 1 8 16 14 13 3 2 2 3 4 3 26 27 16 20 27 25 26 23 18 19
9 11 8 6 6 6 6 6 5 5 6 6 8 12 16 13 13 9 4 6 7 3 6 5 2 10 12 3 6 5 3 4 7 5 28 23 21 30 24 24 21 21 19
8 7 6 7 7 8 8 8 9 9 10 10 12 14 16 17 22 21 11 11 8 7 10 12 13 10 8 6 7 6 2 1 3 3 15 24 15 16 27 28 29 27 24
8 7 8 9 9 10 11 12 12 12 12 13 15 16 18 21 22 21 19 17 14 14 14 14 12 10 8 6 2 1 1 2 4 2 4 15 18 19 24 28 29 24 24
10 10 10 10 11 12 12 12 12 13 13 15 16 17 18 22 23 21 20 19 18 19 20 21 19 17 18 17 14 10 10 7 5 3 0 2 13 16 23 19 30 34 27
10 10 10 10 10 11 12 12 12 13 13 15 16 17 18 20 22 22 20 16 18 18 19 19 18 18 20 20 18 17 17 15 14 16 17 18 20 23 22 25 27 28 30
9 10 10 11 11 11 12 12 13 13 14 15 16 18 19 19 22 22 20 17 17 16 16 17 20 20 20 21 20 20 21 20 22 22 20 19 18 21 17 20 24 27 28
9 10 11 12 12 11 11 11 12 13 14 15 16 17 19 20 21 21 21 18 18 17 18 19 21 21 20 20 20 21 21 22 21 21 21 21 22 22 24 23 25 27 29
10 11 12 11 11 11 11 11 12 13 13 14 15 17 18 19 20 21 20 19 19 18 18 19 19 20 21 22 22 22 23 21 22 21 21 21 23 24 26 27 25 27 29
10 11 11 11 11 11 11 11 12 12 13 14 15 16 17 18 18 19 19 19 19 19 18 18 19 19 17 21 23 23 23 23 23 23 24 24 25 26 27 27 29 29 27
10 11 11 11 11 11 11 11 12 13 13 14 15 16 16 18 18 19 18 17 17 18 16 19 19 19 21 21 22 23 23 24 24 24 25 25 26 28 28 28 30 31 32
10 10 10 10 11 11 11 12 13 15 15 14 15 16 15 17 18 19 19 19 19 19 19 19 19 20 21 21 22 23 24 24 25 26 27 27 28 29 29 30 30 33 34
9 10 10 10 10 9 10 12 15 14 15 16 16 16 17 17 17 19 20 20 20 20 19 20 21 21 22 23 24 24 25 26 27 27 28 28 30 31 32 31 31 33 35
8 9 9 9 8 8 9 10 11 13 15 15 16 16 16 16 17 18 19 20 20 20 20 21 22 22 22 24 24 25 27 27 27 29 29 30 31 32 33 34 34 34 35
6 8 8 8 8 8 8 9 10 10 12 12 13 14 15 16 17 18 19 19 18 20 21 21 22 22 23 24 25 26 27 27 29 30 30 31 32 34 35 35 36 37 38
5 6 7 7 7 8 8 8 9 10 11 11 12 12 13 14 15 17 19 21 20 21 21 22 22 23 24 25 26 27 27 28 29 31 31 32 33 33 34 34 36 36 36
4 6 7 7 8 8 8 8 9 10 10 11 12 14 13 14 14 17 18 20 22 22 22 22 22 23 24 25 26 27 28 29 29 29 31 32 32 33 34 36 36 37 37
4 5 6 7 7 7 7 7 8 9 10 12 14 16 17 16 17 19 21 21 22 23 24 24 23 22 23 24 27 28 29 29 27 29 30 32 34 35 35 34 35 35 35
2 3 5 6 6 6 7 7 8 10 11 13 14 15 15 15 18 19 19 20 22 23 23 24 24 25 26 26 26 28 28 28 28 28 30 32 34 34 33 34 35 34 34
2 2 4 5 6 7 7 7 8 10 12 14 16 15 16 18 18 18 19 21 23 24 25 26 27 26 25 24 25 25 27 27 27 28 31 33 33 33 34 34 35 34 32
2 2 4 5 5 6 6 7 9 11 12 14 15 16 16 17 17 19 20 23 24 27 27 27 26 26 25 24 23 22 23 23 27 29 30 31 31 33 33 33 31 30 31
3 1 3 4 5 6 7 7 9 10 10 12 14 14 15 16 18 19 21 23 26 28 28 26 25 26 25 24 22 21 23 25 26 28 28 30 30 30 28 29 29 30 29
3 0 2 3 4 5 5 7 8 9 10 12 12 13 14 15 17 19 21 24 26 28 27 25 24 23 23 21 21 23 23 23 25 26 27 26 25 26 29 31 30 28 29
Wind_Direction
177 179 179 183 188 190 196 197 176 145 83 92 113 128 127 142 127 119 136 50 141 166 165 156 152 158 151 92 15 0 343 332 270 319 271 307 293 291 298 323 332 167 169
174 175 181 188 194 187 180 177 150 140 84 108 135 148 144 162 168 169 166 135 156 111 126 22 11 82 26 49 355 340 336 318 312 314 306 312 291 284 285 293 302 315 302
162 168 173 166 158 164 164 150 133 129 148 137 105 116 127 153 165 172 181 183 187 180 172 349 336 335 347 2 168 163 95 5 314 303 305 307 304 272 281 282 290 292 294
154 145 138 126 111 115 97 105 109 118 124 104 77 59 80 158 177 186 186 185 186 175 44 6 322 327 322 354 27 18 49 29 359 307 295 303 300 275 280 283 290 295 295
120 131 109 56 47 54 63 66 80 63 46 38 20 0 344 352 352 7 149 169 182 65 13 10 101 347 335 17 357 8 26 360 346 333 291 291 298 271 284 287 294 294 298
99 86 49 57 51 52 55 49 30 31 21 16 8 359 348 345 331 330 355 357 10 15 7 359 348 350 347 346 347 352 345 351 10 92 213 297 314 293 285 283 285 293 299
82 55 44 43 43 30 24 22 17 13 10 5 358 354 346 336 329 332 335 341 349 351 354 357 5 11 14 18 30 204 223 198 184 111 146 316 319 305 298 289 289 300 303
80 64 54 41 25 16 12 9 8 7 3 0 359 356 346 336 331 331 332 335 340 340 336 335 340 350 347 353 2 14 11 16 27 28 343 325 330 325 312 314 300 296 307
73 59 43 34 29 21 11 5 4 8 11 8 2 1 1 351 343 341 340 354 344 344 343 344 347 346 342 341 345 348 352 357 3 355 344 339 330 321 320 312 307 307 306
52 37 31 27 23 17 12 10 7 13 17 15 10 7 1 359 348 347 346 1 359 2 5 2 349 343 340 339 340 338 334 338 335 334 338 337 337 331 332 325 319 312 311
45 32 26 22 19 21 21 16 11 6 8 6 7 6 5 357 356 354 350 360 357 359 356 353 348 350 351 351 348 343 339 337 338 339 337 336 334 333 329 327 322 317 313
35 26 24 27 28 26 22 16 11 13 13 13 12 9 6 6 2 1 5 7 358 9 7 7 7 6 6 1 358 353 350 352 348 348 348 347 343 338 334 331 330 325 319
42 37 34 40 36 32 27 24 21 19 16 11 7 6 6 5 8 13 13 11 7 12 12 13 10 6 14 2 355 350 353 352 350 347 344 342 340 337 336 334 331 330 329
50 43 51 52 54 50 44 32 23 18 12 8 6 6 8 6 4 3 10 12 14 11 17 4 0 2 1 358 354 351 349 349 347 345 345 343 340 336 335 335 330 328 325
58 55 62 59 64 62 29 6 16 353 356 10 8 10 16 15 11 8 2 1 1 3 4 7 6 4 2 360 0 358 355 352 351 348 344 341 340 337 335 333 332 328 322
63 63 72 77 75 46 41 22 11 18 15 16 13 24 19 26 21 14 10 6 3 358 8 4 359 3 358 352 351 353 352 350 347 345 344 342 338 335 333 332 330 327 324
61 60 68 71 65 51 42 46 40 20 23 28 31 27 25 30 24 20 15 11 7 3 6 1 355 356 357 347 351 351 348 348 347 344 343 340 337 334 332 330 328 326 325
49 45 57 56 56 50 44 53 53 47 42 35 29 28 26 23 18 12 4 2 7 6 2 359 356 356 354 351 349 348 347 347 345 343 340 339 337 334 331 330 327 325 323
45 37 32 44 51 54 59 58 49 36 28 32 33 27 26 18 11 4 355 353 355 355 356 356 356 354 351 349 347 346 345 342 342 341 340 338 337 335 332 331 329 327 326
28 29 40 52 59 71 64 50 37 29 23 21 20 14 21 16 10 359 355 353 351 350 349 349 351 350 349 347 346 345 342 341 340 340 339 339 338 336 333 331 329 328 327
10 36 37 53 68 62 57 43 33 23 19 15 10 4 2 3 359 353 350 351 352 351 350 348 349 349 347 345 343 341 340 339 340 340 339 339 337 334 333 333 332 331 330
6 16 29 32 33 38 42 38 31 24 17 13 11 11 10 7 358 359 359 358 355 354 355 354 350 347 345 343 343 341 340 339 339 339 338 337 336 336 336 334 333 332 331
321 32 28 22 29 23 28 25 24 23 19 11 8 9 8 2 6 6 4 1 359 357 354 351 349 349 349 348 347 344 341 341 341 340 337 337 337 336 335 335 334 334 333
286 352 12 29 36 50 23 24 24 11 12 14 12 5 7 10 10 9 6 1 358 355 353 353 353 353 352 350 350 352 353 351 345 342 340 339 338 337 337 337 338 338 336
268 324 31 30 59 45 36 32 24 23 21 15 7 13 16 12 8 7 2 359 357 355 355 357 358 356 357 357 358 1 358 353 348 345 344 341 341 341 342 341 341 340 340
245 193 75 44 62 40 36 21 18 23 19 10 17 16 11 8 6 2 359 357 357 356 357 358 358 359 360 3 7 1 360 359 355 352 350 349 348 346 343 342 344 343 341